�������l�o���
Date,Time,MP-1(��Sv/h),MP-2(��Sv/h),MP-3(��Sv/h),MP-4(��Sv/h),MP-5(��Sv/h),MP-6(��Sv/h),MP-7(��Sv/h),MP-8(��Sv/h),����,����(m/s),���J
2020/05/15,00:00,0.721,1.040,0.681,1.268,0.905,0.406,0.706,0.664,���k��,1.1,��
2020/05/15,00:10,0.720,1.042,0.680,1.268,0.906,0.409,0.706,0.666,�k�k��,2.2,��
2020/05/15,00:20,0.720,1.041,0.681,1.267,0.906,0.408,0.707,0.665,�k��,2.5,��
2020/05/15,00:30,0.722,1.038,0.680,1.270,0.905,0.407,0.707,0.665,�k��,2.8,��
2020/05/15,00:40,0.722,1.041,0.681,1.270,0.907,0.405,0.706,0.665,�k��,3.2,��
2020/05/15,00:50,0.721,1.040,0.680,1.268,0.906,0.406,0.706,0.663,�k��,3.2,��
2020/05/15,01:00,0.720,1.041,0.681,1.266,0.905,0.405,0.708,0.666,�k��,3.9,��
2020/05/15,01:10,0.720,1.040,0.678,1.269,0.907,0.407,0.707,0.663,���k��,3.0,��
2020/05/15,01:20,0.720,1.039,0.681,1.268,0.905,0.405,0.708,0.665,���k��,3.1,��
2020/05/15,01:30,0.722,1.041,0.681,1.271,0.907,0.406,0.707,0.664,��,3.4,��
2020/05/15,01:40,0.719,1.039,0.680,1.269,0.905,0.408,0.707,0.664,��,2.6,��
2020/05/15,01:50,0.722,1.039,0.681,1.268,0.906,0.406,0.707,0.665,�쐼,2.6,��
2020/05/15,02:00,0.720,1.040,0.681,1.270,0.905,0.405,0.706,0.664,���쐼,2.0,��
2020/05/15,02:10,0.718,1.041,0.680,1.269,0.906,0.405,0.707,0.663,���쐼,2.3,��
2020/05/15,02:20,0.718,1.043,0.681,1.268,0.906,0.407,0.707,0.664,��,5.0,��
2020/05/15,02:30,0.719,1.038,0.681,1.270,0.907,0.406,0.706,0.664,���쐼,6.2,��
2020/05/15,02:40,0.721,1.040,0.682,1.270,0.907,0.406,0.707,0.664,��,6.6,��
2020/05/15,02:50,0.720,1.040,0.680,1.269,0.907,0.405,0.706,0.665,��,5.8,��
2020/05/15,03:00,0.721,1.039,0.680,1.271,0.904,0.405,0.706,0.664,��,6.4,��
2020/05/15,03:10,0.720,1.038,0.679,1.269,0.906,0.405,0.707,0.665,���쐼,7.3,��
2020/05/15,03:20,0.721,1.039,0.681,1.268,0.904,0.407,0.707,0.665,���쐼,3.6,��
2020/05/15,03:30,0.720,1.036,0.680,1.268,0.906,0.407,0.707,0.664,���k��,2.6,��
2020/05/15,03:40,0.719,1.039,0.680,1.271,0.904,0.406,0.706,0.666,��,0.9,��
2020/05/15,03:50,0.721,1.039,0.680,1.269,0.905,0.404,0.708,0.666,�k�k��,1.4,��
2020/05/15,04:00,0.720,1.037,0.679,1.269,0.905,0.408,0.706,0.664,�k,1.7,��
2020/05/15,04:10,0.720,1.038,0.679,1.269,0.906,0.407,0.708,0.665,�k��,2.8,��
2020/05/15,04:20,0.720,1.040,0.681,1.267,0.907,0.407,0.707,0.667,�k��,3.0,��
2020/05/15,04:30,0.719,1.042,0.681,1.268,0.906,0.406,0.708,0.664,�k��,3.9,��
2020/05/15,04:40,0.720,1.039,0.680,1.268,0.905,0.406,0.708,0.665,�k��,3.8,��
2020/05/15,04:50,0.720,1.039,0.680,1.270,0.907,0.406,0.707,0.663,�k��,3.9,��
2020/05/15,05:00,0.722,1.040,0.681,1.270,0.905,0.406,0.707,0.664,���k��,4.1,��
2020/05/15,05:10,0.721,1.040,0.678,1.268,0.906,0.407,0.707,0.664,���k��,2.9,��
2020/05/15,05:20,0.720,1.039,0.681,1.270,0.907,0.406,0.708,0.665,���쐼,2.0,��
2020/05/15,05:30,0.720,1.038,0.682,1.270,0.907,0.405,0.706,0.664,��쐼,2.3,��
2020/05/15,05:40,0.721,1.040,0.680,1.271,0.907,0.407,0.707,0.665,��쐼,2.6,��
2020/05/15,05:50,0.721,1.042,0.682,1.270,0.905,0.406,0.706,0.666,��,2.9,��
2020/05/15,06:00,0.720,1.039,0.682,1.270,0.906,0.406,0.707,0.664,��쓌,2.6,��
2020/05/15,06:10,0.722,1.039,0.681,1.270,0.905,0.406,0.706,0.665,��쓌,2.2,��
2020/05/15,06:20,0.721,1.041,0.681,1.271,0.906,0.406,0.707,0.664,��,1.2,��
2020/05/15,06:30,0.721,1.039,0.681,1.272,0.906,0.405,0.708,0.666,��쐼,1.7,��
2020/05/15,06:40,0.720,1.039,0.682,1.270,0.907,0.405,0.708,0.666,���쐼,1.7,��
2020/05/15,06:50,0.721,1.038,0.681,1.271,0.909,0.407,0.707,0.666,���쐼,1.2,��
2020/05/15,07:00,0.720,1.039,0.680,1.269,0.907,0.406,0.707,0.664,�k��,0.6,��
2020/05/15,07:10,0.720,1.041,0.681,1.271,0.906,0.406,0.708,0.665,�k��,1.1,��
2020/05/15,07:20,0.722,1.041,0.683,1.273,0.907,0.406,0.707,0.667,�k��,0.6,��
2020/05/15,07:30,0.723,1.042,0.682,1.267,0.905,0.406,0.705,0.665,�k��,0.8,��
2020/05/15,07:40,0.722,1.039,0.683,1.272,0.909,0.408,0.706,0.667,�k�k��,0.6,��
2020/05/15,07:50,0.722,1.042,0.681,1.273,0.910,0.406,0.707,0.666,�k��,1.2,��
2020/05/15,08:00,0.720,1.042,0.683,1.272,0.909,0.405,0.705,0.664,�k��,0.9,��
2020/05/15,08:10,0.722,1.041,0.682,1.273,0.908,0.408,0.706,0.665,���쓌,0.9,��
2020/05/15,08:20,0.719,1.039,0.682,1.272,0.907,0.405,0.706,0.665,���쓌,0.8,��
2020/05/15,08:30,0.721,1.035,0.680,1.273,0.908,0.406,0.707,0.665,���쓌,0.6,��
2020/05/15,08:40,0.721,1.034,0.682,1.271,0.909,0.403,0.705,0.665,��쓌,0.8,��
2020/05/15,08:50,0.721,1.033,0.682,1.270,0.908,0.405,0.707,0.664,��,1.4,��
2020/05/15,09:00,0.722,1.035,0.679,1.272,0.905,0.403,0.705,0.663,�쓌,1.1,��
2020/05/15,09:10,0.719,1.034,0.680,1.271,0.907,0.405,0.707,0.663,�쓌,1.7,��
2020/05/15,09:20,0.719,1.031,0.680,1.270,0.908,0.404,0.708,0.664,�쓌,1.5,��
2020/05/15,09:30,0.720,1.032,0.682,1.267,0.907,0.405,0.706,0.664,�쓌,1.1,��
2020/05/15,09:40,0.720,1.032,0.684,1.272,0.907,0.405,0.707,0.662,���쓌,1.5,��
2020/05/15,09:50,0.718,1.032,0.682,1.272,0.907,0.405,0.705,0.662,��,1.7,��
2020/05/15,10:00,0.721,1.034,0.681,1.271,0.908,0.405,0.707,0.663,�쓌,2.0,��
2020/05/15,10:10,0.720,1.035,0.682,1.273,0.908,0.406,0.706,0.665,�쓌,1.7,��
2020/05/15,10:20,0.721,1.032,0.680,1.273,0.907,0.406,0.706,0.662,���쓌,1.7,��
2020/05/15,10:30,0.719,1.034,0.679,1.274,0.906,0.405,0.708,0.664,���쓌,1.7,��
2020/05/15,10:40,0.722,1.034,0.679,1.272,0.906,0.405,0.707,0.662,��쓌,2.6,��
2020/05/15,10:50,0.720,1.036,0.681,1.267,0.907,0.405,0.707,0.664,��쓌,2.5,��
2020/05/15,11:00,0.724,1.037,0.680,1.269,0.909,0.405,0.708,0.662,��쓌,3.3,��
2020/05/15,11:10,0.720,1.036,0.680,1.268,0.909,0.404,0.708,0.665,��쓌,3.4,��
2020/05/15,11:20,0.722,1.039,0.681,1.269,0.908,0.405,0.709,0.663,��쓌,3.0,��
2020/05/15,11:30,0.719,1.037,0.681,1.268,0.908,0.405,0.708,0.664,�쓌,2.5,��
2020/05/15,11:40,0.722,1.037,0.682,1.271,0.908,0.405,0.707,0.664,���k��,2.0,��
2020/05/15,11:50,0.721,1.039,0.679,1.269,0.909,0.405,0.708,0.666,�k��,3.5,��
2020/05/15,12:00,0.720,1.040,0.681,1.269,0.909,0.404,0.708,0.663,�k�k��,4.4,��
2020/05/15,12:10,0.720,1.040,0.681,1.272,0.908,0.404,0.707,0.664,�k��,3.3,��
2020/05/15,12:20,0.721,1.041,0.682,1.269,0.908,0.405,0.706,0.663,�k��,3.2,��
2020/05/15,12:30,0.721,1.042,0.680,1.271,0.908,0.404,0.708,0.664,�k��,4.1,��
2020/05/15,12:40,0.722,1.042,0.682,1.270,0.908,0.404,0.707,0.663,���k��,2.9,��
2020/05/15,12:50,0.722,1.039,0.681,1.270,0.909,0.404,0.707,0.664,�k��,2.6,��
2020/05/15,13:00,0.723,1.039,0.681,1.266,0.909,0.406,0.707,0.664,-,CALM,��
2020/05/15,13:10,0.720,1.040,0.682,1.271,0.909,0.404,0.707,0.665,���k��,2.3,��
2020/05/15,13:20,0.722,1.036,0.681,1.274,0.910,0.404,0.708,0.664,�k��,1.7,��
2020/05/15,13:30,0.723,1.038,0.682,1.268,0.909,0.405,0.707,0.664,�k��,1.7,��
2020/05/15,13:40,0.721,1.034,0.681,1.270,0.909,0.405,0.706,0.664,��,1.9,��
2020/05/15,13:50,0.719,1.037,0.681,1.271,0.911,0.404,0.706,0.663,��,1.9,��
2020/05/15,14:00,0.720,1.037,0.682,1.271,0.909,0.404,0.707,0.665,�쓌,1.7,��
2020/05/15,14:10,0.721,1.034,0.680,1.271,0.909,0.403,0.708,0.663,-,CALM,��
2020/05/15,14:20,0.720,1.034,0.683,1.273,0.908,0.405,0.706,0.664,���k��,0.6,��
2020/05/15,14:30,0.720,1.039,0.679,1.273,0.909,0.406,0.708,0.663,�쓌,1.9,��
2020/05/15,14:40,0.720,1.035,0.679,1.275,0.908,0.405,0.709,0.662,-,CALM,��
2020/05/15,14:50,0.722,1.037,0.682,1.271,0.908,0.406,0.709,0.665,-,CALM,��
2020/05/15,15:00,0.720,1.038,0.682,1.273,0.908,0.404,0.707,0.662,��,1.7,��
2020/05/15,15:10,0.721,1.038,0.683,1.270,0.909,0.405,0.707,0.663,�k��,1.5,��
2020/05/15,15:20,0.724,1.036,0.683,1.273,0.911,0.405,0.709,0.664,�k��,1.5,��
2020/05/15,15:30,0.722,1.039,0.682,1.273,0.909,0.404,0.708,0.665,���k��,1.4,��
2020/05/15,15:40,0.721,1.040,0.681,1.273,0.910,0.405,0.707,0.665,-,CALM,��
2020/05/15,15:50,0.722,1.039,0.681,1.272,0.908,0.405,0.707,0.664,��,1.1,��
2020/05/15,16:00,0.719,1.042,0.682,1.273,0.909,0.405,0.707,0.663,�k�k��,0.6,��
2020/05/15,16:10,0.721,1.041,0.680,1.271,0.911,0.405,0.707,0.662,�k��,1.2,��
2020/05/15,16:20,0.721,1.041,0.683,1.272,0.910,0.405,0.706,0.664,�k��,1.5,��
2020/05/15,16:30,0.720,1.042,0.681,1.271,0.910,0.403,0.707,0.664,�k�k��,1.4,��
2020/05/15,16:40,0.720,1.042,0.682,1.272,0.909,0.407,0.708,0.664,�k��,1.4,��
2020/05/15,16:50,0.721,1.042,0.682,1.276,0.909,0.404,0.705,0.662,�k�k��,1.5,��
2020/05/15,17:00,0.721,1.041,0.686,1.276,0.912,0.405,0.709,0.663,-,CALM,��
2020/05/15,17:10,0.722,1.044,0.683,1.273,0.910,0.405,0.708,0.663,�k,0.9,��
2020/05/15,17:20,0.723,1.045,0.683,1.272,0.909,0.406,0.707,0.664,�k�k��,1.2,��
2020/05/15,17:30,0.722,1.045,0.684,1.275,0.910,0.405,0.707,0.663,�k�k��,1.5,��
2020/05/15,17:40,0.723,1.046,0.685,1.275,0.912,0.407,0.708,0.663,�k�k��,1.1,��
2020/05/15,17:50,0.723,1.044,0.684,1.272,0.911,0.404,0.706,0.665,���k��,1.5,��
2020/05/15,18:00,0.722,1.047,0.682,1.273,0.910,0.406,0.707,0.664,���k��,1.5,��
2020/05/15,18:10,0.723,1.046,0.682,1.274,0.913,0.406,0.705,0.665,���k��,1.2,��
2020/05/15,18:20,0.723,1.044,0.683,1.274,0.910,0.405,0.708,0.664,���k��,1.5,��
2020/05/15,18:30,0.722,1.046,0.683,1.272,0.910,0.405,0.708,0.663,��,0.6,��
2020/05/15,18:40,0.722,1.045,0.683,1.275,0.912,0.406,0.708,0.667,��,0.6,��
2020/05/15,18:50,0.723,1.043,0.684,1.273,0.914,0.404,0.708,0.666,-,CALM,��
2020/05/15,19:00,0.722,1.044,0.682,1.275,0.910,0.406,0.707,0.666,��,0.8,��
2020/05/15,19:10,0.724,1.046,0.683,1.275,0.913,0.404,0.706,0.667,��쓌,0.6,��
2020/05/15,19:20,0.725,1.044,0.682,1.275,0.913,0.406,0.709,0.666,�쐼,0.8,��
2020/05/15,19:30,0.722,1.046,0.684,1.274,0.910,0.406,0.709,0.666,-,CALM,��
2020/05/15,19:40,0.724,1.043,0.682,1.272,0.910,0.407,0.708,0.666,-,CALM,��
2020/05/15,19:50,0.721,1.046,0.683,1.272,0.911,0.405,0.709,0.666,-,CALM,��
2020/05/15,20:00,0.723,1.045,0.684,1.272,0.912,0.406,0.709,0.667,��쓌,0.6,��
2020/05/15,20:10,0.723,1.042,0.683,1.273,0.911,0.407,0.708,0.666,��쐼,0.6,��
2020/05/15,20:20,0.722,1.044,0.682,1.273,0.911,0.405,0.709,0.666,-,CALM,��
2020/05/15,20:30,0.723,1.046,0.683,1.274,0.909,0.404,0.710,0.666,���쓌,0.8,��
2020/05/15,20:40,0.722,1.046,0.683,1.274,0.913,0.407,0.708,0.665,�k��,0.8,��
2020/05/15,20:50,0.724,1.044,0.683,1.273,0.911,0.407,0.708,0.665,���쓌,0.6,��
2020/05/15,21:00,0.723,1.043,0.683,1.272,0.911,0.406,0.708,0.666,-,CALM,��
2020/05/15,21:10,0.723,1.044,0.683,1.272,0.910,0.404,0.709,0.668,-,CALM,��
2020/05/15,21:20,0.722,1.044,0.683,1.273,0.912,0.406,0.709,0.666,�k�k��,0.8,��
2020/05/15,21:30,0.723,1.044,0.683,1.274,0.913,0.408,0.709,0.666,���k��,0.9,��
2020/05/15,21:40,0.723,1.042,0.684,1.273,0.910,0.406,0.707,0.665,�k,0.8,��
2020/05/15,21:50,0.724,1.044,0.683,1.273,0.911,0.407,0.710,0.665,�k�k��,1.1,��
2020/05/15,22:00,0.724,1.045,0.682,1.271,0.910,0.406,0.707,0.666,�k��,0.9,��
2020/05/15,22:10,0.724,1.043,0.684,1.273,0.910,0.407,0.708,0.667,�k��,1.7,��
2020/05/15,22:20,0.724,1.043,0.683,1.273,0.909,0.406,0.709,0.665,���k��,2.6,��
2020/05/15,22:30,0.723,1.045,0.680,1.274,0.910,0.406,0.710,0.666,�k��,2.6,��
2020/05/15,22:40,0.724,1.042,0.683,1.275,0.910,0.407,0.708,0.665,�k�k��,2.3,��
2020/05/15,22:50,0.723,1.044,0.682,1.274,0.911,0.405,0.708,0.666,�k,3.1,��
2020/05/15,23:00,0.723,1.043,0.683,1.273,0.910,0.407,0.710,0.668,�k,4.3,��
2020/05/15,23:10,0.724,1.045,0.684,1.274,0.913,0.407,0.709,0.665,�k,4.1,��
2020/05/15,23:20,0.724,1.043,0.685,1.273,0.909,0.407,0.711,0.666,�k�k��,3.4,��
2020/05/15,23:30,0.723,1.048,0.685,1.273,0.912,0.408,0.711,0.665,�k,4.6,��
2020/05/15,23:40,0.724,1.043,0.686,1.275,0.912,0.408,0.708,0.667,�k�k��,4.9,��
2020/05/15,23:50,0.724,1.045,0.684,1.274,0.913,0.407,0.708,0.666,�k�k��,4.3,��
